Location: La Chapelle
(48.3135°N, 1.3085°W)
Time: 22:56:43
(UTC+00:00)

Cosmos 1980 Rocket - Pass Details

Date: 03 March 2021
Orbit: 828 x 851 km, 71.0° (Epoch: 14 April)

Event Time Altitude Azimuth Distance (km) Brightness Sun altitude
Rises 18:52:41 0° 239° (WSW) 3,392 6.4 -10.8°
Reaches altitude 10° 18:55:24 10° 250° (WSW) 2,465 5.8 -11.2°
Maximum altitude 19:00:24 31° 312° (NW) 1,448 4.0 -12.1°
Drops below altitude 10° 19:05:26 10° 14° (NNE) 2,487 4.6 -12.9°
Sets 19:08:12 0° 24° (NNE) 3,428 5.2 -13.4°
